Louisville, KY

10:08 AM EDT on May 24, 2017 (GMT -0400)
Louisville International-Standiford

Weather History for KSDF - January, 2013

Change the Weather History Date:

Friday, January 11, 2013

  Actual Average Record
Temperature  
Mean Temperature 61 °F 35 °F  
Max Temperature 68 °F 43 °F 69 °F (1890)
Min Temperature 54 °F 27 °F -8 °F (1977)
Degree Days  
Heating Degree Days 4 30  
Month to date heating degree days 281 330  
Since 1 July heating degree days 1772 1906  
Cooling Degree Days 0 0  
Month to date cooling degree days 0 0  
Year to date cooling degree days 0 0  
Growing Degree Days 8 (Base 50)    
Moisture  
Dew Point 53 °F    
Average Humidity 71    
Maximum Humidity 93    
Minimum Humidity 48    
Precipitation  
Precipitation 0.69 in 0.11 in 1.90 in (1913)
Month to date precipitation 0.96 1.17  
Year to date precipitation 0.96 1.17  
Snow  
Snow 0.00 in 0.10 in 8.20 in (1912)
Month to date snowfall T 1.2  
Since 1 July snowfall 2.7 4.0  
Snow Depth 0.00 in    
Sea Level Pressure  
Sea Level Pressure 29.95 in    
Wind  
Wind Speed 10 mph (SSW)    
Max Wind Speed 23 mph    
Max Gust Speed 31 mph    
Visibility 8 miles    
Events Rain    
T = Trace of Precipitation, MM = Missing Value Source: NWS Daily Summary

Daily Weather History Graph

Daily Weather History Graph

Search for Another Location

Airport or City:

Trip Planner

Search our weather history database for the weather conditions in past years. The results will help you decide how hot, cold, wet, or windy it might be!

Date:

Astronomy

Jan. 11, 2013 Rise Set
Actual Time 7:59 AM EST 5:43 PM EST
Civil Twilight 7:30 AM EST 6:12 PM EST
Nautical Twilight 6:57 AM EST 6:44 PM EST
Astronomical Twilight 6:25 AM EST 7:16 PM EST
Moon 7:32 AM EST (1/11) 5:59 PM EST (1/11)
Length of Visible Light 10h 42m
Length of Day
9h 43m
Waning Crescent, 0% of the Moon is Illuminated
Jan 11
Waning Crescent
Jan 11
New
Jan 18
First Quarter
Jan 26
Full
Feb 3
Last Quarter

Hourly Weather History & Observations

Time (EST) Temp. Dew Point Humidity Pressure Visibility Wind Dir Wind Speed Gust Speed Precip Events Conditions
12:56 AM 55.4 °F 51.8 °F 88% 30.02 in 10.0 mi Calm Calm - N/A   Overcast
1:56 AM 55.0 °F 52.0 °F 89% 30.00 in 5.0 mi ESE 6.9 mph - 0.04 in Rain Rain
2:56 AM 57.0 °F 54.0 °F 89% 29.97 in 10.0 mi SE 10.4 mph - 0.01 in   Overcast
3:56 AM 59.0 °F 54.0 °F 83% 29.92 in 10.0 mi SE 12.7 mph - 0.00 in Rain Light Rain
4:56 AM 60.1 °F 55.9 °F 86% 29.87 in 10.0 mi SE 17.3 mph 24.2 mph 0.02 in Rain Light Rain
5:26 AM 59.0 °F 55.4 °F 88% 29.87 in 5.0 mi SSE 11.5 mph - 0.08 in Rain Heavy Rain
5:36 AM 60.8 °F 57.2 °F 88% 29.89 in 1.8 mi South 17.3 mph 25.3 mph 0.16 in Rain Heavy Rain
5:43 AM 60.8 °F 57.2 °F 88% 29.90 in 1.5 mi SW 12.7 mph 23.0 mph 0.35 in Rain Heavy Rain
5:48 AM 60.8 °F 59.0 °F 94% 29.91 in 3.0 mi SSW 17.3 mph 23.0 mph 0.37 in Rain Rain
5:56 AM 60.1 °F 57.9 °F 93% 29.92 in 5.0 mi West 19.6 mph 24.2 mph 0.40 in Rain Rain
5:58 AM 60.8 °F 57.2 °F 88% 29.92 in 5.0 mi West 20.7 mph - 0.01 in Rain Heavy Rain
6:56 AM 57.2 °F 55.4 °F 94% 29.94 in 3.0 mi SSW 5.8 mph - N/A Rain Rain
7:10 AM 57.2 °F 55.4 °F 94% 29.93 in 2.5 mi SSW 6.9 mph - 0.05 in Rain Rain
7:18 AM 55.4 °F 55.4 °F 100% 29.94 in 6.0 mi South 9.2 mph - 0.07 in Rain Light Rain
7:39 AM 55.4 °F 55.4 °F 100% 29.94 in 6.0 mi South 4.6 mph - 0.08 in Rain Light Rain
7:53 AM 55.4 °F 55.4 °F 100% 29.94 in 10.0 mi South 5.8 mph - 0.09 in   Overcast
7:56 AM 55.9 °F 55.0 °F 97% 29.95 in 10.0 mi South 6.9 mph - 0.09 in   Overcast
8:28 AM 57.2 °F 55.4 °F 94% 29.97 in 10.0 mi SSW 8.1 mph - N/A   Overcast
8:56 AM 57.9 °F 54.0 °F 87% 29.97 in 10.0 mi SW 10.4 mph - N/A   Mostly Cloudy
9:06 AM 57.2 °F 53.6 °F 88% 29.97 in 10.0 mi SSW 9.2 mph - N/A   Mostly Cloudy
9:56 AM 59.0 °F 54.0 °F 83% 29.97 in 10.0 mi SW 15.0 mph 20.7 mph N/A   Mostly Cloudy
10:56 AM 60.8 °F 53.6 °F 77% 29.99 in 10.0 mi SW 11.5 mph 19.6 mph N/A   Mostly Cloudy
11:56 AM 63.0 °F 51.1 °F 65% 29.96 in 10.0 mi SW 21.9 mph 27.6 mph N/A   Overcast
12:56 PM 63.0 °F 50.0 °F 63% 29.95 in 10.0 mi SSW 16.1 mph - N/A   Overcast
1:56 PM 64.0 °F 48.9 °F 58% 29.93 in 10.0 mi SW 17.3 mph 23.0 mph N/A   Overcast
2:56 PM 66.9 °F 48.0 °F 51% 29.94 in 10.0 mi SW 10.4 mph 19.6 mph N/A   Overcast
3:56 PM 66.0 °F 46.9 °F 50% 29.93 in 10.0 mi SSW 9.2 mph - N/A   Mostly Cloudy
4:56 PM 66.0 °F 46.9 °F 50% 29.94 in 10.0 mi SSW 16.1 mph 19.6 mph N/A   Mostly Cloudy
5:56 PM 63.0 °F 48.0 °F 58% 29.94 in 10.0 mi South 5.8 mph - N/A   Mostly Cloudy
6:56 PM 61.0 °F 48.0 °F 62% 29.95 in 10.0 mi South 4.6 mph - N/A   Mostly Cloudy
7:56 PM 59.0 °F 48.0 °F 67% 29.95 in 10.0 mi South 4.6 mph - N/A   Scattered Clouds
8:56 PM 57.0 °F 48.9 °F 74% 29.95 in 10.0 mi SSE 4.6 mph - N/A   Scattered Clouds
9:56 PM 57.0 °F 50.0 °F 77% 29.96 in 10.0 mi Variable 3.5 mph - N/A   Partly Cloudy
10:56 PM 60.1 °F 53.1 °F 78% 29.96 in 10.0 mi South 6.9 mph - N/A   Scattered Clouds
11:56 PM 61.0 °F 53.1 °F 75% 29.96 in 10.0 mi South 10.4 mph - N/A   Mostly Cloudy